Погода в Петровке

Россия / Алтайский край     53°04′13″N   84°38′05″E
темп.,
°C
ветер,
м/с
пор.,
м/с
влажн.,
%
обл.,
%
осадки,
мм/ч
давл.,
гПа
погр.,
м
9 марта, вт
вт901:000з91497100 1.1 1017957
04:00−9з5119297 0.2 1024423
07:00−11юз499499 0.2 1029289
10:00−11юз489285 0.0 1030285
13:00−7ююз368652 0.0 1030487
16:00−5ююз358039 0.0 1028660
19:00−9ююв349033 0.0 102738
22:00−10ююв3490100 0.0 102653
10 марта, ср
ср1001:00−9ююв3384100 0.0 102473
04:00−7ю4695100 0.1 1022177
07:00−5ю369699 0.1 1022214
10:00−3ю359695 0.1 1021249
13:00−2юв349396 0.1 1018198
16:000юв369063 0.0 1015226
19:00−2юв598579 0.0 1012179
22:00−1юв51084100 0.0 1009196
11 марта, чт
чт1101:00−1ю4987100 0.0 1007177
04:00+1юз81697100 0.1 1007855
07:00+1юз71598100 0.6 1010675
10:00−3з5986100 0.5 1014521
13:00−4зюз5884100 0.5 1016641
16:00−3зюз5986100 0.0 1019781
19:00−5юз51088100 0.1 1021756
22:00−7юз399266 0.0 1023197
12 марта, пт
пт1201:00−9ююв479642 0.0 1020119
04:00−6ю61490100 0.0 1017337
07:00−4юз81494100 0.8 1016931
10:00−6з61194100 2.1 1017757
13:00−6зюз71565100 2.6 10191377
16:00−8зюз71368100 0.0 10201153
19:00−11зюз4117979 0.0 1021356
22:00−13з6138867 0.1 1024939
13 марта, сб
сб1301:00−17з5118978 0.1 1027570
04:00−19з389064 0.0 1030193
07:00−20юз339432 0.0 103364
10:00−18юз23920 0.0 1034213
13:00−15ю237613 0.0 1034617
16:00−13ю237469 0.0 1033587
19:00−17ююв239337 0.0 103330
22:00−19ю23905 0.0 103428